Flag Weather past 2 weeks in Rheine, North Rhine-Westphalia, Germany

Now
36 °F

Chilly.


Feels Like: 29 °F
Forecast: 31 / 38 °F
Wind: 9 mph from East

Location: Rheine-Bentlage

Current Time: Nov 29, 2014 at 2:26:41 AM

Latest Report: Nov 29, 2014 at 1:20 AM


Visibility: N/A

Pressure: 29.98 "Hg

Humidity: 81%

Dew point: 30 °F

Location of RheineLocation

Historic Weather in Rheine — Graph

°F

Rheine temperature yesterday

Maximum temperature yesterday: 43 °F (at 11:20 AM)
Minimum temperature yesterday: 36 °F (at 7:20 PM)
Average temperature yesterday: 39 °F

Past Weeks' High & Low Weather Summary

 TemperatureHumidityPressure
High59 °F (Nov 23, 2:20 PM)100% (Nov 14, 1:20 AM)30.36 "Hg (Nov 14, 1:20 AM)
Low30 °F (Nov 25, 7:20 AM)66% (Nov 21, 1:20 PM)29.47 "Hg (Nov 16, 1:20 PM)
Average44 °F87%29.97 "Hg
* Reported Nov 14 1:20 AM — Nov 29 1:20 AM, Rheine, Weather by CustomWeather, © 2014

Note: Actual official high and low records may vary slightly from our data, if they occured in-between our weather recording intervals... More about our weather records

Advertising

Rheine weather history for previous 24 hours

 ConditionsComfort  
Time TempWeatherWind HumidityBarometerVisibility
1:20 AM
Nov 29
36 °FChilly.9 mph81%29.98 "HgN/A
12:20 AM36 °FChilly.10 mph87%29.98 "HgN/A
11:20 PM
Nov 28
36 °FChilly.9 mph81%29.98 "HgN/A
10:20 PM36 °FChilly.9 mph87%29.98 "HgN/A
9:20 PM36 °FChilly.8 mph87%29.98 "HgN/A
8:20 PM36 °FChilly.9 mph87%29.95 "HgN/A
7:20 PM36 °FChilly.10 mph87%29.95 "HgN/A
6:20 PM37 °FChilly.10 mph81%29.95 "HgN/A
5:20 PM39 °FChilly.10 mph81%29.92 "HgN/A
4:20 PM41 °FQuite cool.13 mph76%29.89 "HgN/A
3:20 PM43 °FQuite cool.13 mph76%29.89 "HgN/A
2:20 PM43 °FQuite cool.14 mph76%29.86 "HgN/A
1:20 PM43 °FQuite cool.13 mph76%29.86 "HgN/A
12:20 PM41 °FPartly sunny.13 mph81%29.89 "HgN/A
11:20 AM43 °FPartly sunny.12 mph76%29.86 "HgN/A
10:20 AM41 °FPartly sunny.8 mph81%29.86 "HgN/A
9:20 AM39 °FPartly sunny.9 mph87%29.86 "HgN/A
8:20 AM39 °FPartly sunny.7 mph87%29.86 "HgN/A
7:20 AM37 °FPassing clouds.5 mph87%29.83 "HgN/A
6:20 AM37 °FPassing clouds.6 mph87%29.83 "HgN/A
5:20 AM37 °FPassing clouds.6 mph87%29.80 "HgN/A
4:20 AM39 °FChilly.6 mph87%29.80 "HgN/A
3:20 AM39 °FChilly.6 mph87%29.80 "HgN/A
2:20 AM41 °FQuite cool.6 mph87%29.80 "HgN/A
Weather by CustomWeather, © 2014

See weather overviewHow to use our weather pages